PAZ (43215 NORAD) Tracking and Keplerian Element Data

This shows tracking and keplerian element data for the satellite.

Feedback or suggestion? Click here.




ElementValue
Catalog43215
NamePAZ
Epoch Orbit19913
Epoch Day269.22609177
Epoch Year2021
RAAN275.3648
Inclination97.4456
Eccentricity0.0001679
Argument of Perigee82.4751
Mean Anonmoly339.5009
Mean Motion15.19153656
Decay Rate3.65E-06
L11 43215U 18020A 21269.22609177 .00000365 00000-0 20594-4 0 9998
L22 43215 97.4456 275.3648 0001679 82.4751 339.5009 15.19153656199131

Live tracking and technical data element details for PAZ (NORAD 43215). PAZ can be tracked NOW for your location showing map with azimuth and elevation plus other details from your city location.

Track the satellite on the map from your city or location and see movement details for azimuth, elevation, latitude, longitude, range, height, and movement on the map or in text.







IsCatalogInMostPopularTable: catalog: 43215, numindb: 531
Update: records affected: 1



GetName: 43215 PAZ

Hit Count: updated at: Mon, 27 Sep 2021 00:09:36 GMT